Wind_Speed
50 50 51 53 56 60 62 63 64 61 56 59 64 68 70 69 70 71 72 74 75 75 75 76 81 90 93 90 94 91 84 82 80 78 74 73 72 70
50 51 54 57 60 61 63 66 64 65 64 67 70 74 76 78 78 78 78 77 76 78 80 80 80 82 94 98 95 93 90 90 87 84 79 76 75 73
52 56 58 60 61 64 66 65 68 71 72 68 75 77 80 83 83 83 85 85 82 79 80 83 84 83 82 92 102 98 94 96 90 86 85 82 79 75
53 56 58 61 64 66 67 69 72 75 78 77 81 84 88 88 88 89 89 87 86 84 81 80 82 84 86 85 87 102 102 99 96 93 93 87 84 80
54 54 59 62 66 65 68 72 75 79 84 88 89 92 93 93 90 88 86 83 79 79 79 78 77 82 86 87 86 89 104 102 99 99 95 89 85 85
54 59 63 66 67 69 73 76 80 85 91 94 96 96 92 87 84 78 67 61 62 61 67 69 70 74 80 85 86 86 90 103 110 105 104 106 98 94
58 61 65 68 71 75 78 81 86 92 94 96 94 90 81 65 55 49 48 44 45 50 52 54 58 63 69 78 83 83 86 88 93 103 105 107 96 102
59 63 66 70 74 77 81 88 94 97 94 92 85 72 52 44 41 42 42 41 36 44 47 43 46 47 54 64 71 75 78 83 82 84 96 92 97 92
61 64 69 73 76 79 85 92 94 92 91 79 61 48 41 41 38 36 38 37 34 37 46 35 42 40 45 48 55 60 67 74 75 74 80 87 97 96
64 68 72 75 79 84 89 92 87 87 69 55 49 44 41 41 40 39 38 36 36 39 43 33 36 39 42 45 50 53 58 60 63 63 69 76 84 88
67 71 73 78 83 87 91 87 83 72 51 46 45 44 42 38 39 39 38 36 33 36 37 32 34 35 37 41 46 50 51 52 54 57 55 58 70 82
69 73 77 82 85 89 89 84 80 57 41 38 38 37 34 34 34 36 36 35 33 34 33 29 32 34 34 35 37 44 43 45 45 47 57 61 59 67
69 73 79 83 86 89 86 83 70 47 40 36 35 31 31 31 34 37 37 37 39 36 33 27 30 31 33 28 31 33 42 43 43 44 49 61 39 46
71 75 81 83 85 84 81 77 56 44 40 37 34 31 30 30 32 33 36 35 36 36 29 25 27 30 30 30 27 29 35 39 36 43 43 48 63 47
72 77 81 82 83 79 79 68 51 41 36 36 33 32 30 29 30 31 36 33 31 34 28 22 25 25 29 28 26 27 31 32 29 26 40 39 51 62
72 77 80 80 79 76 75 62 52 45 36 34 32 30 30 31 31 32 33 31 27 27 28 21 21 23 23 26 26 24 25 29 22 27 20 30 40 57
74 77 79 75 73 71 70 57 48 45 38 32 31 30 30 30 31 31 30 31 29 23 22 22 19 21 23 24 26 27 26 25 17 17 24 21 21 32
73 75 74 73 72 71 68 54 46 44 39 32 28 28 28 28 28 28 30 30 29 26 21 19 18 19 22 25 27 27 25 25 21 17 19 23 21 18
72 71 71 70 68 70 66 54 44 44 40 34 30 27 27 28 27 27 30 29 27 27 24 19 17 17 17 21 26 32 33 31 28 27 19 18 23 23
67 68 67 66 66 67 62 50 44 43 41 36 31 29 27 27 26 26 29 29 24 24 23 20 17 16 15 17 19 22 27 32 33 32 29 26 29 23
65 65 64 63 64 64 56 47 42 42 41 38 34 30 28 27 26 27 29 31 28 23 22 20 17 15 15 15 15 17 18 19 21 24 23 21 20 24
62 62 61 61 62 60 50 43 40 40 40 38 34 30 29 28 26 27 28 28 28 24 21 19 17 15 13 13 13 15 16 16 16 16 17 18 18 17
58 59 59 59 60 59 48 39 37 38 38 38 36 32 27 26 26 26 26 26 25 23 21 19 17 14 13 11 10 10 11 12 12 11 10 10 10 10
Wind_Direction
304 300 300 302 301 301 302 302 302 297 294 295 295 294 291 288 286 284 281 278 274 271 268 261 256 251 252 251 254 253 253 253 254 253 251 250 248 248
304 303 305 305 305 304 303 304 301 301 299 296 296 296 293 290 288 285 285 282 276 270 267 265 261 254 247 247 247 249 253 253 251 253 253 251 250 248
306 306 307 307 306 307 307 305 303 302 300 299 300 298 296 294 290 288 288 285 280 272 265 262 260 259 254 250 248 248 247 249 249 249 251 252 251 249
308 310 310 309 308 309 306 305 304 304 303 301 301 300 299 296 292 289 287 285 280 275 268 261 258 256 253 250 247 245 246 246 246 247 248 250 252 252
311 311 312 313 313 311 309 308 308 308 307 306 304 303 301 298 294 291 287 282 278 273 268 263 257 252 251 251 246 244 240 242 243 245 245 246 247 249
313 315 316 317 316 314 313 312 311 311 310 307 306 304 302 298 294 290 283 280 278 276 272 267 259 252 248 248 247 243 242 242 241 242 245 249 247 248
318 319 320 320 319 319 317 316 315 313 310 308 307 305 303 295 291 289 286 281 280 280 275 270 262 254 248 246 245 244 242 243 244 244 244 246 249 247
321 322 323 323 322 322 322 322 319 316 314 311 312 307 300 296 296 294 290 287 281 281 280 270 262 254 250 246 244 243 242 242 245 246 239 242 244 246
324 325 326 324 323 323 325 323 321 319 318 317 312 307 304 301 303 302 298 297 290 286 282 273 262 256 249 248 246 242 242 243 243 246 245 243 243 242
326 327 327 326 325 327 327 325 323 322 320 314 313 312 308 308 308 310 305 303 301 295 281 277 261 255 252 247 244 240 240 241 243 246 246 245 243 237
328 329 329 329 328 329 329 327 327 325 317 314 313 311 310 310 310 310 308 308 295 297 288 277 262 257 255 253 250 242 238 239 240 245 244 242 245 241
330 331 332 331 332 332 330 330 330 326 316 312 311 309 309 309 310 315 319 321 310 296 292 271 259 260 256 259 257 250 241 241 237 238 230 238 231 237
331 332 333 334 334 334 333 333 333 329 320 318 317 315 314 315 319 320 320 319 323 314 299 274 254 257 262 255 257 255 238 240 240 238 250 243 223 224
332 333 335 336 336 335 336 336 333 330 320 322 322 320 314 317 321 322 323 317 317 319 314 279 254 252 258 260 255 246 251 251 248 236 247 239 242 228
334 336 338 338 338 338 338 337 336 332 323 323 322 322 320 319 329 331 333 329 321 321 318 293 262 253 255 259 254 245 249 249 246 247 249 241 227 220
336 338 339 340 339 339 339 336 336 336 329 325 326 327 328 325 326 331 333 334 326 322 322 312 276 254 253 258 256 250 254 256 266 246 252 247 228 235
337 339 340 340 340 339 340 337 334 336 331 326 323 321 321 322 326 332 333 334 336 329 325 319 300 267 257 248 254 253 258 266 263 254 247 251 245 232
338 340 340 340 340 341 342 340 336 338 333 328 327 324 325 325 328 335 337 337 335 336 327 321 312 291 270 260 250 249 257 261 256 252 265 258 260 250
340 341 340 340 341 343 343 340 338 341 339 333 331 327 326 330 331 334 338 338 334 331 335 322 314 306 288 276 263 254 251 255 264 251 252 250 244 251
340 341 341 340 342 344 342 340 338 342 341 338 333 333 330 329 333 333 341 342 336 333 331 332 316 306 300 286 279 272 266 264 265 264 260 263 258 262
340 341 341 340 343 344 341 339 340 343 345 342 338 333 332 330 331 333 337 341 341 335 331 328 328 315 303 301 294 283 278 275 272 269 267 263 260 256
340 340 340 341 343 344 339 336 339 343 345 345 340 338 337 332 330 330 331 335 337 338 332 329 327 326 319 308 303 297 289 283 276 274 268 266 263 249
339 339 339 340 343 344 338 333 335 339 345 346 344 340 339 339 335 333 332 333 336 339 337 326 324 327 324 310 304 299 293 289 286 278 274 269 264 252
Height
5736 5731 5725 5719 5713 5707 5699 5692 5686 5685 5686 5677 5667 5659 5653 5647 5640 5636 5633 5630 5626 5623 5621 5622 5622 5624 5627 5633 5640 5644 5650 5654 5657 5662 5667 5672 5676 5680
5726 5720 5714 5707 5700 5693 5685 5677 5669 5662 5661 5651 5646 5636 5627 5621 5614 5608 5604 5603 5602 5597 5593 5593 5593 5597 5602 5606 5610 5618 5624 5629 5635 5640 5646 5652 5657 5661
5716 5710 5702 5695 5687 5679 5670 5661 5652 5642 5636 5639 5620 5611 5604 5594 5587 5580 5573 5568 5566 5565 5565 5562 5564 5569 5574 5574 5582 5588 5597 5604 5610 5616 5622 5628 5636 5642
5705 5698 5691 5683 5674 5664 5655 5644 5634 5623 5612 5608 5598 5585 5574 5564 5557 5551 5544 5536 5529 5527 5529 5532 5535 5537 5537 5546 5553 5558 5567 5575 5583 5590 5597 5607 5614 5621
5694 5686 5678 5669 5659 5649 5639 5627 5615 5603 5589 5575 5569 5555 5542 5529 5525 5517 5510 5503 5496 5493 5493 5496 5500 5503 5506 5516 5520 5527 5537 5547 5557 5562 5571 5580 5589 5600
5681 5673 5663 5653 5643 5633 5621 5608 5595 5581 5565 5550 5537 5522 5509 5500 5487 5479 5481 5473 5470 5466 5463 5463 5467 5473 5479 5484 5492 5500 5506 5516 5525 5535 5543 5554 5564 5576
5668 5659 5649 5637 5625 5612 5601 5588 5573 5557 5540 5524 5508 5494 5480 5471 5463 5460 5454 5456 5455 5446 5442 5439 5440 5447 5452 5455 5463 5471 5481 5488 5497 5507 5515 5529 5539 5551
5656 5645 5634 5624 5612 5597 5582 5564 5546 5528 5513 5493 5480 5465 5459 5453 5451 5445 5440 5438 5441 5431 5422 5425 5420 5425 5426 5431 5439 5449 5458 5463 5472 5480 5491 5501 5516 5524
5643 5633 5621 5609 5598 5584 5567 5548 5527 5505 5484 5467 5458 5450 5448 5441 5439 5434 5428 5424 5423 5419 5405 5413 5407 5409 5409 5415 5421 5427 5433 5442 5452 5461 5469 5477 5487 5499
5629 5620 5608 5595 5581 5567 5551 5532 5510 5489 5471 5457 5447 5442 5438 5433 5426 5422 5417 5413 5411 5402 5392 5401 5397 5397 5399 5402 5406 5410 5415 5422 5431 5440 5446 5453 5460 5473
5617 5605 5593 5580 5565 5551 5534 5515 5496 5477 5462 5451 5442 5435 5430 5424 5418 5414 5408 5403 5399 5389 5383 5388 5388 5388 5390 5392 5392 5396 5402 5408 5415 5422 5427 5432 5440 5449
5603 5591 5578 5565 5549 5533 5514 5497 5482 5466 5455 5447 5438 5430 5423 5418 5412 5405 5398 5392 5386 5381 5375 5378 5378 5378 5382 5382 5383 5384 5390 5395 5401 5405 5409 5415 5421 5429
5595 5582 5568 5552 5535 5517 5497 5479 5464 5454 5445 5438 5431 5424 5418 5412 5406 5399 5392 5385 5378 5372 5367 5366 5368 5369 5370 5375 5374 5376 5379 5383 5387 5390 5393 5396 5405 5413
5584 5570 5556 5540 5523 5506 5488 5471 5457 5446 5437 5431 5424 5418 5412 5408 5402 5395 5387 5379 5372 5364 5361 5358 5360 5361 5363 5364 5367 5369 5371 5373 5375 5379 5383 5386 5392 5405
5573 5558 5543 5527 5511 5494 5477 5462 5451 5442 5433 5426 5419 5412 5406 5401 5395 5389 5381 5373 5367 5361 5356 5353 5353 5355 5356 5358 5360 5362 5364 5365 5369 5370 5373 5376 5382 5388
5562 5548 5534 5519 5502 5486 5472 5455 5443 5435 5428 5420 5414 5407 5401 5395 5390 5384 5377 5371 5365 5359 5352 5349 5348 5349 5350 5352 5354 5356 5357 5359 5361 5363 5364 5366 5372 5378
5551 5538 5526 5513 5500 5485 5468 5454 5441 5432 5424 5417 5410 5404 5398 5392 5386 5380 5373 5367 5360 5355 5351 5346 5344 5344 5345 5346 5348 5350 5352 5353 5356 5357 5358 5360 5365 5368
5540 5529 5517 5504 5490 5477 5462 5448 5437 5429 5420 5412 5406 5400 5393 5388 5382 5376 5370 5363 5357 5352 5348 5344 5341 5339 5340 5340 5342 5344 5346 5347 5349 5352 5354 5354 5356 5361
5530 5519 5507 5494 5482 5467 5453 5441 5433 5424 5415 5408 5401 5396 5390 5384 5378 5373 5368 5362 5355 5350 5345 5341 5339 5336 5335 5335 5336 5337 5339 5341 5344 5347 5348 5350 5353 5357
5522 5511 5499 5487 5475 5462 5449 5439 5430 5422 5413 5405 5398 5392 5387 5381 5376 5370 5366 5360 5354 5348 5343 5339 5336 5334 5332 5331 5331 5332 5332 5335 5336 5338 5342 5345 5346 5351
5514 5503 5491 5480 5468 5456 5444 5435 5427 5419 5411 5402 5395 5389 5384 5378 5373 5368 5362 5357 5352 5346 5342 5338 5334 5331 5329 5328 5328 5327 5328 5329 5330 5332 5335 5339 5343 5346
5507 5496 5486 5475 5463 5451 5441 5433 5426 5418 5410 5403 5395 5387 5381 5376 5370 5365 5360 5355 5349 5344 5340 5336 5332 5329 5327 5326 5325 5324 5324 5324 5326 5327 5330 5332 5335 5340
5499 5490 5481 5471 5460 5448 5438 5430 5423 5416 5409 5401 5394 5387 5380 5374 5368 5363 5357 5352 5347 5342 5338 5334 5331 5328 5325 5324 5322 5321 5321 5322 5322 5323 5325 5327 5330 5333